Location: Unspecified
(41.9000°N, 12.4830°E)
Time: 16:11:47

ISS - Pass Details

Date: 27 February 2018
Orbit: 403 x 406 km, 51.6° (Epoch: 23 March)

Event Time Altitude Azimuth Distance (km) Brightness Sun altitude
Exits shadow 05:26:10 - 194° (SSW) 1,659 -0.9 -16.1°
Reaches altitude 10° 05:26:45 10° 189° (S) 1,457 -1.1 -16.0°
Maximum altitude 05:29:25 23° 135° (SE) 910 -1.6 -15.5°
Drops below altitude 10° 05:32:05 10° 80° (E) 1,464 0.4 -15.0°
Sets 05:34:26 0° 65° (ENE) 2,327 1.3 -14.6°
